Glendive, MT

2:13 PM MDT on April 27, 2017 (GMT -0600)
Dawson Community

Weather History for KGDV - August, 2013

Change the Weather History Date:

Thursday, August 29, 2013

  Actual Average Record
Temperature  
Mean Temperature 74 °F -  
Max Temperature 89 °F 81 °F 98 °F (2012)
Min Temperature 60 °F 53 °F 46 °F (2007)
Cooling Degree Days 10    
Growing Degree Days 24 (Base 50)    
Moisture  
Dew Point 60 °F    
Average Humidity 65    
Maximum Humidity 94    
Minimum Humidity 29    
Precipitation  
Precipitation 0.00 in - - ()
Sea Level Pressure  
Sea Level Pressure 30.00 in    
Wind  
Wind Speed 6 mph (NW)    
Max Wind Speed 13 mph    
Max Gust Speed 17 mph    
Visibility 10 miles    
Events Thunderstorm    
Averages and records for this station are not official NWS values.
T = Trace of Precipitation, MM = Missing Value Source: NWS Daily Summary

Daily Weather History Graph

Daily Weather History Graph

Search for Another Location

Airport or City:

Trip Planner

Search our weather history database for the weather conditions in past years. The results will help you decide how hot, cold, wet, or windy it might be!

Date:

Astronomy

Aug. 29, 2013 Rise Set
Actual Time 6:14 AM MDT 7:44 PM MDT
Civil Twilight 5:43 AM MDT 8:16 PM MDT
Nautical Twilight 5:04 AM MDT 8:54 PM MDT
Astronomical Twilight 4:22 AM MDT 9:36 PM MDT
Moon No Moon Rise 3:27 PM MDT (8/29)
Length of Visible Light 14h 33m
Length of Day
13h 29m
Last Quarter, 37% of the Moon is Illuminated
Aug 29
Last Quarter
Sep 5
New
Sep 12
First Quarter
Sep 19
Full
Sep 26
Last Quarter

Hourly Weather History & Observations

Time (MDT) Temp. Heat Index Dew Point Humidity Pressure Visibility Wind Dir Wind Speed Gust Speed Precip Events Conditions
12:15 AM 66.2 °F - 64.4 °F 94% - 9.0 mi Calm Calm - N/A Thunderstorm Thunderstorm
12:35 AM 68.0 °F - 64.4 °F 88% - 10.0 mi NNE 9.2 mph - N/A Thunderstorm Thunderstorm
12:55 AM 68.0 °F - 64.4 °F 88% - 10.0 mi North 5.8 mph - N/A   Clear
1:15 AM 66.2 °F - 64.4 °F 94% - 10.0 mi NNE 10.4 mph - N/A   Clear
1:35 AM 66.2 °F - 62.6 °F 88% - 10.0 mi NNE 11.5 mph - N/A   Clear
1:55 AM 66.2 °F - 62.6 °F 88% - 10.0 mi NE 4.6 mph - N/A   Clear
2:15 AM 66.2 °F - 60.8 °F 83% - 10.0 mi NNE 3.5 mph - N/A   Clear
2:35 AM 64.4 °F - 60.8 °F 88% - 10.0 mi NNW 4.6 mph - N/A   Clear
3:15 AM 62.6 °F - 60.8 °F 94% - 10.0 mi WNW 6.9 mph - N/A   Clear
3:35 AM 62.6 °F - 60.8 °F 94% - 10.0 mi NW 8.1 mph - N/A   Clear
3:55 AM 62.6 °F - 60.8 °F 94% - 10.0 mi West 4.6 mph - N/A   Clear
4:15 AM 62.6 °F - 60.8 °F 94% - 10.0 mi West 6.9 mph - N/A   Clear
4:35 AM 60.8 °F - 59.0 °F 94% - 10.0 mi West 5.8 mph - N/A   Clear
5:15 AM 60.8 °F - 59.0 °F 94% 29.93 in 10.0 mi WNW 6.9 mph - N/A   Clear
5:35 AM 62.6 °F - 60.8 °F 94% 29.94 in 10.0 mi NNW 9.2 mph - N/A   Clear
5:55 AM 62.6 °F - 60.8 °F 94% 29.95 in 10.0 mi NW 8.1 mph - N/A   Clear
6:15 AM 62.6 °F - 60.8 °F 94% 29.94 in 10.0 mi NW 5.8 mph - N/A   Clear
6:35 AM 60.8 °F - 59.0 °F 94% 29.95 in 10.0 mi West 6.9 mph - N/A   Clear
7:15 AM 62.6 °F - 60.8 °F 94% - 10.0 mi West 4.6 mph - N/A   Clear
7:35 AM 64.4 °F - 62.6 °F 94% - 10.0 mi WNW 5.8 mph - N/A   Clear
7:55 AM 66.2 °F - 64.4 °F 94% - 10.0 mi WNW 6.9 mph - N/A   Clear
8:15 AM 69.8 °F - 64.4 °F 83% - 10.0 mi West 6.9 mph - N/A   Clear
8:35 AM 71.6 °F - 64.4 °F 78% - 10.0 mi West 10.4 mph - N/A   Clear
8:55 AM 73.4 °F - 64.4 °F 73% - 10.0 mi WNW 9.2 mph - N/A   Clear
9:15 AM 73.4 °F - 64.4 °F 73% - 10.0 mi West 8.1 mph - N/A   Clear
9:35 AM 75.2 °F - 64.4 °F 69% - 10.0 mi West 8.1 mph - N/A   Clear
9:55 AM 77.0 °F - 66.2 °F 69% - 10.0 mi WSW 6.9 mph - N/A   Clear
10:15 AM 78.8 °F - 64.4 °F 61% - 10.0 mi WSW 4.6 mph - N/A   Clear
10:35 AM 78.8 °F - 64.4 °F 61% - 10.0 mi WNW 6.9 mph - N/A   Clear
10:55 AM 80.6 °F 82.3 °F 64.4 °F 58% - 10.0 mi NW 9.2 mph - N/A   Clear
11:15 AM 82.4 °F 83.9 °F 64.4 °F 54% - 10.0 mi WNW 8.1 mph - N/A   Clear
11:35 AM 84.2 °F 85.0 °F 62.6 °F 48% - 10.0 mi WNW 9.2 mph - N/A   Clear
12:15 PM 86.0 °F 86.6 °F 62.6 °F 45% 30.03 in 10.0 mi WNW 8.1 mph - N/A   Clear
12:35 PM - - - N/A% - - North - - N/A   Unknown
12:55 PM 86.0 °F 86.1 °F 60.8 °F 43% 30.02 in 10.0 mi WNW 6.9 mph - N/A   Clear
1:15 PM 87.8 °F 87.6 °F 60.8 °F 40% 30.02 in 10.0 mi NNE 3.5 mph - N/A   Clear
1:35 PM 87.8 °F 87.6 °F 60.8 °F 40% 30.02 in 10.0 mi Calm Calm - N/A   Clear
2:35 PM 89.6 °F 89.5 °F 60.8 °F 38% 30.01 in 10.0 mi WNW 10.4 mph 17.3 mph N/A   Clear
2:55 PM 89.6 °F 89.5 °F 60.8 °F 38% 30.00 in 10.0 mi North 12.7 mph - N/A   Clear
3:15 PM 89.6 °F 89.5 °F 60.8 °F 38% 30.00 in 10.0 mi NNW 9.2 mph - N/A   Clear
3:55 PM 89.6 °F 88.1 °F 57.2 °F 33% 29.99 in 10.0 mi NNW 5.8 mph - N/A   Clear
4:16 PM 89.6 °F 88.1 °F 57.2 °F 33% 29.99 in 10.0 mi NNW 8.1 mph - N/A   Clear
4:35 PM 89.6 °F 87.7 °F 55.4 °F 31% 29.99 in 10.0 mi WNW 3.5 mph - N/A   Clear
4:55 PM 89.6 °F 88.1 °F 57.2 °F 33% 29.99 in 10.0 mi NNW 4.6 mph - N/A   Clear
5:15 PM 89.6 °F 87.3 °F 53.6 °F 29% 29.99 in 10.0 mi NNW 9.2 mph - N/A   Clear
5:35 PM 89.6 °F 87.3 °F 53.6 °F 29% 29.99 in 10.0 mi North 5.8 mph - N/A   Clear
5:55 PM 89.6 °F 87.7 °F 55.4 °F 31% 29.99 in 10.0 mi Calm Calm - N/A   Clear
6:15 PM 87.8 °F 86.1 °F 55.4 °F 33% 29.99 in 10.0 mi NW 5.8 mph - N/A   Clear
6:35 PM 86.0 °F 84.5 °F 55.4 °F 35% 30.00 in 10.0 mi NNW 8.1 mph - N/A   Clear
6:55 PM 84.2 °F 83.5 °F 57.2 °F 40% 30.01 in 10.0 mi NNW 5.8 mph - N/A   Clear
7:15 PM 82.4 °F 81.7 °F 55.4 °F 39% 30.01 in 10.0 mi NNW 6.9 mph - N/A   Clear
7:35 PM 78.8 °F - 57.2 °F 47% 30.01 in 10.0 mi North 5.8 mph - N/A   Clear
7:55 PM 77.0 °F - 57.2 °F 50% 30.01 in 10.0 mi North 5.8 mph - N/A   Clear
8:15 PM 77.0 °F - 57.2 °F 50% 30.01 in 10.0 mi North 4.6 mph - N/A   Clear
8:35 PM 75.2 °F - 57.2 °F 53% 30.01 in 10.0 mi North 3.5 mph - N/A   Clear
8:55 PM 77.0 °F - 57.2 °F 50% 30.02 in 10.0 mi North 4.6 mph - N/A   Clear
9:15 PM 75.2 °F - 57.2 °F 53% 30.02 in 10.0 mi NNW 5.8 mph - N/A   Clear
9:35 PM 71.6 °F - 57.2 °F 60% 30.02 in 10.0 mi NW 4.6 mph - N/A   Clear
9:55 PM 69.8 °F - 57.2 °F 64% 30.02 in 10.0 mi NNW 4.6 mph - N/A   Clear
10:15 PM 71.6 °F - 57.2 °F 60% 30.02 in 10.0 mi North 5.8 mph - N/A   Clear
10:35 PM 69.8 °F - 57.2 °F 64% 30.01 in 10.0 mi North 5.8 mph - N/A   Clear
10:55 PM 69.8 °F - 59.0 °F 68% 30.01 in 10.0 mi North 4.6 mph - N/A   Clear
11:15 PM 66.2 °F - 57.2 °F 73% 30.02 in 10.0 mi NW 4.6 mph - N/A   Clear
11:35 PM 68.0 °F - 59.0 °F 73% 30.01 in 10.0 mi North 5.8 mph - N/A   Clear
11:55 PM 68.0 °F - 59.0 °F 73% 30.02 in 10.0 mi NNE 3.5 mph - N/A   Clear